Regional Weather Roundup
Issued by NWS Charleston, SC

Current Version | Previous Version | Text Only | Print | Product List | Glossary Off
Versions: 1 2 3 4 5 6 7 8 9 10 11 12 13 14 15 16 17 18 19 20 21 22 23 24 25 26 27 28 29 30 31 32 33 34 35 36 37 38 39 40 41 42 43 44 45 46 47 48 49 50

000
ASUS42 KCHS 040628
RWRCHS

REGIONAL WEATHER ROUNDUP
NATIONAL WEATHER SERVICE CHARLESTON SC
200 AM EDT WED MAY 04 2016

NOTE: "FAIR" INDICATES FEW OR NO CLOUDS BELOW 12,000 FEET WITH NO
SIGNIFICANT WEATHER AND/OR OBSTRUCTIONS TO VISIBILITY.

NOT ALL STATIONS ARE QUALITY CONTROLLED. USE DATA WITH CAUTION...
ESPECIALLY DEWPOINT OBSERVATIONS.

SCZ027-030-031-034>040-042>050-040700-
...SOUTHEAST SOUTH CAROLINA...

CITY           SKY/WX    TMP DP  RH WIND       PRES   REMARKS
N CHARLESTON   PTCLDY    67  64  90 SW7       29.76F
6HR MIN TEMP:  66; 6HR MAX TEMP:  80; 6HR PCP:  0.37;

WATERFRONT PRK   N/A     68  66  93 CALM      29.75F
MOUNT PLEASANT FAIR      66  66 100 CALM      29.75F
JOHNS ISLAND   FAIR      68  68 100 W3        29.76F
PINOPOLIS        N/A     70  64  83 SW5       29.69F
MONCKS CORNER  FAIR      63  59  88 SW6       29.76S
SUMMERVILLE    FAIR      64  64 100 S5        29.77F
BEAUFORT MCAS  CLOUDY    68  67  96 S3        29.78F
6HR MIN TEMP:  67; 6HR MAX TEMP:  74; 6HR PCP:  1.08;

BEAUFORT ARPT  MOCLDY    68  68 100 SW3       29.77F
HILTON HEAD IS CLOUDY    70  70 100 SW3       29.79F
WALTERBORO     PTCLDY    68  68 100 SW5       29.77F
ALLENDALE      CLOUDY    66  66 100 S3        29.76S

...SOUTHERN MIDLANDS AND PEE DEE...

CITY           SKY/WX    TMP DP  RH WIND       PRES   REMARKS
GEORGETOWN     FAIR      64  61  88 SW7       29.75F
KINGSTREE      FAIR      68  61  77 CALM      29.73F
ORANGEBURG     CLOUDY    69  66  90 W5        29.75F
6HR MIN TEMP:  68; 6HR MAX TEMP:  78;

BARNWELL       CLOUDY    70  70 100 CALM      29.76F
AIKEN          FAIR      64  61  88 SW3       29.80S
MANNING        FAIR      68  63  83 S6        29.74F
COLUMBIA       PTCLDY    68  65  90 SW5       29.73F
6HR MIN TEMP:  68; 6HR MAX TEMP:  74;

SUMTER         PTCLDY    68  65  89 SW6       29.72F
6HR MIN TEMP:  68; 6HR MAX TEMP:  75;

FLORENCE       MOCLDY    71  65  81 SW7       29.73F
6HR MIN TEMP:  71; 6HR MAX TEMP:  78;

MYRTLE BEACH   CLOUDY    70  57  64 W6        29.74F
N MYRTLE BEACH CLOUDY    71  61  70 SW12      29.73F
6HR MIN TEMP:  71; 6HR MAX TEMP:  74; 6HR PCP: TRACE;


$$

GAZ063-065-086>088-099>101-113>116-118-119-134>141-150-040700-
...SOUTHEAST GEORGIA...

CITY           SKY/WX    TMP DP  RH WIND       PRES   REMARKS
SAVANNAH ARPT  CLOUDY    69  66  90 W3        29.79F
6HR MIN TEMP:  66; 6HR MAX TEMP:  82; 6HR PCP:  0.07;

HUNTER AAF     MOCLDY    69  69 100 SW7       29.76F
6HR MIN TEMP:  68; 6HR MAX TEMP:  82; 6HR PCP:  0.02;

FORT STEWART   CLOUDY    69  65  87 SW5       29.77F
6HR MIN TEMP:  68; 6HR MAX TEMP:  79; 6HR PCP:  0.01;

STATESBORO     CLOUDY    70  70 100 W3        29.78F
SYLVANIA       CLOUDY    67  67 100 SW3       29.78F
CLAXTON        CLOUDY    68  68 100 SW3       29.79F

...CSRA...CENTRAL AND FAR SOUTHEAST GEORGIA...

CITY           SKY/WX    TMP DP  RH WIND       PRES   REMARKS
THOMSON        CLOUDY    66  61  83 W6        29.83S
AUGUSTA-BUSH   MOCLDY    69  65  86 W6        29.77R
6HR MIN TEMP:  69; 6HR MAX TEMP:  75;

AUGUSTA-DANIEL PTCLDY    70  62  76 CALM      29.78S
SWAINSBORO     CLOUDY    68  64  88 W3        29.79F
VIDALIA        CLOUDY    68  66  94 SW5       29.80F
EASTMAN        CLOUDY    68  68 100 CALM      29.83F
HAZLEHURST     FAIR      70  70 100 CALM      29.79F
ALMA           CLOUDY    67  66  97 CALM      29.79F
6HR MIN TEMP:  65; 6HR MAX TEMP:  70; 6HR PCP:  0.05;

WAYCROSS       MOCLDY    68  68 100 SW3       29.79F
JESUP          CLOUDY    70  68  94 SW3       29.79F
BAXLEY         FAIR      68  68 100 CALM      29.77F
BRUNSWICK      CLOUDY    75  72  88 CALM      29.79F
SAINT SIMONS   MOCLDY    73  68  84 W7        29.79F
6HR MIN TEMP:  73; 6HR MAX TEMP:  81; 6HR PCP: TRACE;


$$

SCZ027-028-034-036>038-045-046-048>050-GAZ119-141-040700-
...LAKE AND SUPPLEMENTAL COASTAL OBSERVATIONS...

STATION/POSITION TIME  TEMP    WIND        PRES    WAVE   SWELL
                       AIR SEA DIR/SP/G            HT/PER HT/PER/DIR
                 (UTC) (F)     (DEG/KT/KT) (MB)    (FT/S) (FT/S/D)
WINYAH BAY       0500   68     250/  4     1007.0F
LAKE MURRAY      0500   71     260/  7/  9 1007.1F
ACE BASIN NERRS  0500   67        CALM     1009.0F
FORT PULASKI     0600   71 75  240/  5/  7 1008.9F
SAPELO ISLAND    0600   73     260/  7     1009.0S

$$

ANZ835-935-AMZ111-154-330-350-352-354-370-450-454-472-040700-
...C-MAN AND BUOY OBSERVATIONS...

STATION/POSITION TIME  TEMP    WIND        PRES    WAVE   SWELL
                       AIR SEA DIR/SP/G            HT/PER HT/PER/DIR
                 (UTC) (F)     (DEG/KT/KT) (MB)    (FT/S) (FT/S/D)
BUOY 41004       0550   72 74  190/  8/ 10 1007.6F   4/ 5   3/ 5
BUOY 41008       NOT AVBL
FOLLY BEACH CMAN 0600   72     190/  9/ 10 1007.9F
CAPERS NEARSHORE 0508   71 71  200/  8/ 12 1008.0F
FRIPP NEARSHORE  0608   72 73  200/  8/ 10 1007.5F


STATION/POSITION TIME  TEMP    WIND        PRES    WAVE   SWELL
                       AIR SEA DIR/SP/G            HT/PER HT/PER/DIR
                 (UTC) (F)     (DEG/KT/KT) (MB)    (FT/S) (FT/S/D)
5E ST. MARYS GA  0521      74                N/A     2/10
FRYING PAN BUOY  0600   75 73  230/ 16/ 21 1005.8F
BUOY 41025       0550   71 72  260/ 10/ 12 1006.7F   4/ 8   3/150/ 8
CAPE LOOKOUT NC  0600   70     240/  1/  2 1005.9F
BUOY 41002       0550   73 74  190/ 17/ 19 1010.0F   6/ 7
BUOY 41010       0520   78 78  210/ 17/ 23 1011.2F
ST AUGUSTINE FL  0600   73 71  230/  5/  7 1010.7F


$$




USA.gov is the U.S. government's official web portal to all federal, state and local government web resources and services.